Location: Niverville
(49.6028°N, 97.0419°W)
Time: 13:25:59
(UTC-05:00)

ISS - All Passes

Search period start: 20 April 2014 00:00
Search period end: 30 April 2014 00:00
Orbit: 413 x 419 km, 51.6° (Epoch: 20 April)

Date Brightness Start Highest point End Pass type
(mag) Time Alt. Az. Time Alt. Az. Time Alt. Az.
20 Apr - 15:35:48 10° S 15:38:03 17° SE 15:40:19 10° E daylight
20 Apr - 17:11:01 10° WSW 17:14:21 71° SSE 17:17:43 10° ENE daylight
20 Apr - 18:47:52 10° W 18:51:12 59° N 18:54:32 10° ENE daylight
20 Apr - 20:24:44 10° WNW 20:28:06 87° NNE 20:31:29 10° ESE daylight
20 Apr - 22:01:45 10° W 22:04:35 26° SW 22:07:25 10° SSE visible
21 Apr - 14:48:46 10° SSE 14:49:45 11° SE 14:50:44 10° ESE daylight
21 Apr - 16:22:37 10° SW 16:25:52 51° SSE 16:29:08 10° ENE daylight
21 Apr - 17:59:16 10° W 18:02:36 63° N 18:05:56 10° ENE daylight
21 Apr - 19:36:11 10° WNW 19:39:32 71° NNE 19:42:54 10° E daylight
21 Apr - 21:13:01 10° W 21:16:10 37° SSW 21:19:18 10° SE visible
22 Apr - 15:34:16 10° SW 15:37:21 35° SSE 15:40:26 10° E daylight
22 Apr - 17:10:35 10° W 17:13:56 73° NNW 17:17:18 10° ENE daylight
22 Apr - 18:47:32 10° WNW 18:50:52 62° N 18:54:13 10° E daylight
22 Apr - 20:24:20 10° WNW 20:27:37 54° SSW 20:30:54 10° SE daylight
22 Apr - 22:02:24 10° WSW 22:03:46 12° SW 22:05:08 10° SSW visible
23 Apr - 14:46:04 10° SSW 14:48:48 24° SE 14:51:33 10° E daylight
23 Apr - 16:21:53 10° WSW 16:25:14 89° SE 16:28:36 10° ENE daylight
23 Apr - 17:58:48 10° W 18:02:07 58° N 18:05:27 10° E daylight
23 Apr - 19:35:37 10° WNW 19:38:58 76° SSW 19:42:19 10° ESE daylight
23 Apr - 21:12:53 10° W 21:15:17 18° SW 21:17:41 10° S visible
24 Apr - 13:58:09 10° S 14:00:15 16° SE 14:02:21 10° E daylight
24 Apr - 15:33:11 10° WSW 15:36:30 68° SSE 15:39:50 10° ENE daylight
24 Apr - 17:09:59 10° W 17:13:18 59° N 17:16:38 10° ENE daylight
24 Apr - 18:46:50 10° WNW 18:50:12 84° NNE 18:53:34 10° ESE daylight
24 Apr - 20:23:48 10° W 20:26:41 27° SW 20:29:35 10° SSE daylight
25 Apr - 13:11:37 10° SE 13:11:40 10° SE 13:11:44 10° SE daylight
25 Apr - 14:44:30 10° SW 14:47:44 47° SSE 14:50:58 10° ENE daylight
25 Apr - 16:21:05 10° W 16:24:25 65° N 16:27:45 10° ENE daylight
25 Apr - 17:58:00 10° WNW 18:01:20 69° NNE 18:04:41 10° E daylight
25 Apr - 19:34:48 10° W 19:37:58 40° SSW 19:41:08 10° SE daylight
26 Apr - 13:55:55 10° SSW 13:58:56 32° SSE 14:01:58 10° E daylight
26 Apr - 15:32:08 10° W 15:35:29 76° NNW 15:38:50 10° ENE daylight
26 Apr - 17:09:04 10° WNW 17:12:23 61° N 17:15:42 10° E daylight
26 Apr - 18:45:50 10° WNW 18:49:08 58° SSW 18:52:25 10° SE daylight
26 Apr - 20:23:39 10° WSW 20:25:18 13° SW 20:26:56 10° SSW daylight
27 Apr - 13:07:29 10° SSW 13:10:07 22° SE 13:12:45 10° E daylight
27 Apr - 14:43:09 10° WSW 14:46:30 85° SSE 14:49:51 10° ENE daylight
27 Apr - 16:20:02 10° W 16:23:21 58° N 16:26:39 10° E daylight
27 Apr - 17:56:50 10° WNW 18:00:11 80° SSW 18:03:31 10° ESE daylight
27 Apr - 19:34:00 10° W 19:36:31 20° SW 19:39:02 10° S daylight
28 Apr - 12:19:24 10° S 12:21:17 14° SE 12:23:10 10° ESE daylight
28 Apr - 13:54:11 10° WSW 13:57:28 63° SSE 14:00:47 10° ENE daylight
28 Apr - 15:30:56 10° W 15:34:14 60° N 15:37:33 10° ENE daylight
28 Apr - 17:07:46 10° WNW 17:11:07 80° NNE 17:14:28 10° ESE daylight
28 Apr - 18:44:40 10° W 18:47:38 29° SW 18:50:34 10° SSE daylight
29 Apr - 13:05:15 10° SW 13:08:25 43° SSE 13:11:37 10° ENE daylight
29 Apr - 14:41:44 10° W 14:45:04 67° N 14:48:24 10° ENE daylight
29 Apr - 16:18:38 10° WNW 16:21:58 66° N 16:25:18 10° E daylight
29 Apr - 17:55:25 10° WNW 17:58:37 43° SSW 18:01:48 10° SE daylight
